Weather History for Winslow, AZ

Change the Weather History Date:

Sunday, January 22, 2012

  Actual Average Record
Temperature  
Mean Temperature 35 °F 36 °F  
Max Temperature 46 °F 50 °F 65 °F (1993)
Min Temperature 23 °F 21 °F -18 °F (1937)
Degree Days  
Heating Degree Days 30 29  
Month to date heating degree days 604 668  
Since 1 July heating degree days 2472 2546  
Cooling Degree Days 0 0  
Month to date cooling degree days 0 0  
Year to date cooling degree days 0 0  
Moisture  
Dew Point 19 °F    
Average Humidity 54    
Maximum Humidity 75    
Minimum Humidity 33    
Precipitation  
Precipitation 0.00 in 0.02 in 0.39 in (2010)
Month to date precipitation 0.05 0.38  
Year to date precipitation 0.05 0.38  
Sea Level Pressure  
Sea Level Pressure 30.06 in    
Wind  
Wind Speed 6 mph (WSW)    
Max Wind Speed 26 mph    
Max Gust Speed 35 mph    
Visibility 10 miles    
Events      
T = Trace of Precipitation, MM = Missing Value Source: NWS Daily Summary

Daily Weather History Graph

Daily Weather History Graph

Search for Another Location

Airport:

Trip Planner

Search our weather history database for the weather conditions in past years. The results will help you decide how hot, cold, wet, or windy it might be!

Date:

Astronomy

Jan. 22, 2012 Rise Set
Actual Time 7:28 AM MST 5:41 PM MST
Civil Twilight 7:00 AM MST 6:08 PM MST
Nautical Twilight 6:30 AM MST 6:39 PM MST
Astronomical Twilight 5:59 AM MST 7:09 PM MST
Moon 6:47 AM MST (1/22) 5:25 PM MST (1/22)
Length of Visible Light 11h 07m
Length of Day
10h 12m
Waning Crescent, 0% of the Moon is Illuminated
Jan 22
Waning Crescent
Jan 23
New
Jan 30
First Quarter
Feb 7
Full
Feb 14
Last Quarter

Hourly Weather History & Observations

Time (MST) Temp. Windchill Dew Point Humidity Pressure Visibility Wind Dir Wind Speed Gust Speed Precip Events Conditions
12:56 AM 37.0 °F 26.4 °F 24.1 °F 59% 29.81 in 10.0 mi WSW 20.7 mph 31.1 mph N/A   Clear
1:56 AM 35.1 °F 24.5 °F 23.0 °F 61% 29.86 in 10.0 mi WSW 18.4 mph - N/A   Clear
2:56 AM 34.0 °F 24.2 °F 23.0 °F 64% 29.89 in 10.0 mi WSW 15.0 mph - N/A   Clear
3:56 AM 30.9 °F 21.2 °F 21.9 °F 69% 29.92 in 10.0 mi WSW 12.7 mph - N/A   Clear
4:56 AM 28.9 °F 21.9 °F 21.0 °F 72% 29.95 in 10.0 mi WSW 6.9 mph - N/A   Clear
5:56 AM 28.9 °F 19.8 °F 19.0 °F 67% 29.98 in 10.0 mi West 10.4 mph - N/A   Clear
6:56 AM 27.0 °F 16.7 °F 18.0 °F 69% 30.01 in 10.0 mi SW 11.5 mph - N/A   Clear
7:56 AM 26.1 °F 19.4 °F 18.0 °F 71% 30.05 in 10.0 mi WSW 5.8 mph - N/A   Clear
8:56 AM 34.0 °F 28.0 °F 19.9 °F 56% 30.09 in 10.0 mi SW 6.9 mph - N/A   Clear
9:56 AM 37.9 °F - 19.0 °F 47% 30.12 in 10.0 mi Calm Calm - N/A   Clear
10:56 AM 41.0 °F - 19.4 °F 42% 30.12 in 10.0 mi Calm Calm - N/A   Clear
11:56 AM 43.0 °F 40.3 °F 19.9 °F 40% 30.11 in 10.0 mi Variable 4.6 mph - N/A   Clear
12:56 PM 44.1 °F 39.5 °F 18.0 °F 35% 30.10 in 10.0 mi WNW 8.1 mph - N/A   Clear
1:56 PM 45.0 °F 42.6 °F 18.0 °F 34% 30.09 in 10.0 mi Variable 4.6 mph - N/A   Clear
2:56 PM 45.0 °F - 17.1 °F 33% 30.09 in 10.0 mi Calm Calm - N/A   Clear
4:56 PM 44.6 °F 42.2 °F 17.6 °F 34% 30.12 in 10.0 mi ENE 4.6 mph - N/A   Partly Cloudy
5:56 PM 43.0 °F 40.3 °F 18.0 °F 37% 30.15 in 10.0 mi East 4.6 mph - N/A   Clear
6:56 PM 41.0 °F 36.4 °F 19.9 °F 43% 30.14 in 10.0 mi ESE 6.9 mph - N/A   Scattered Clouds
7:56 PM 37.9 °F 35.5 °F 19.9 °F 48% 30.17 in 10.0 mi NE 3.5 mph - N/A   Clear
8:56 PM 27.0 °F - 18.0 °F 69% 30.19 in 10.0 mi Calm Calm - N/A   Clear
9:56 PM 25.0 °F - 18.0 °F 75% 30.18 in 10.0 mi Calm Calm - N/A   Clear
10:56 PM 25.0 °F - 18.0 °F 75% 30.16 in 10.0 mi Calm Calm - N/A   Clear
11:56 PM 24.1 °F - 17.1 °F 75% 30.15 in 10.0 mi Calm Calm - N/A   Clear